Tracking 30417 objects as of 16-May-2025
HD Live streaming from Space Station
objects crossing your sky now

DELTA 1 DEB

Track DELTA 1 DEB now!
10-day predictions


NORAD ID: 21438
Int'l Code: 1975-052DW
Perigee: 1,090.4 km
Apogee: 1,210.8 km
Inclination: 99.7 °
Period: 108.2 minutes
Semi major axis: 7521 km
RCS: 0.0118 m2 (small)
Launch date: June 12, 1975
Source: United States (US)
Launch site: AIR FORCE WESTERN TEST RANGE (AFWTR)

Note: This is SATELLITE DEBRIS
Your satellite tracking list
Your tracking list is empty




NASA's NSSDC Master Catalog

Two Line Element Set (TLE):
1 21438U 75052DW  25135.30234420  .00000102  00000-0  29704-3 0  9999
2 21438  99.7181  67.3697 0080056 151.2569   0.6419 13.30875233651312
Source of the keplerian elements: AFSPC